{"data":{"norad_id":54838,"intl_designator":"2022-177U","name":"STARLINK-5372","alt_names":[],"object_type":"PAYLOAD","status":"ACTIVE","operator":null,"country":"US","launch_date":"2022-12-28","launch_site_code":"AFETR","launch_vehicle":null,"mission":null,"orbit_class":"UNKNOWN","rcs_meters":null,"size_class":null,"mass_kg":null,"dimensions":null,"purposes":["comms"],"wikipedia_slug":null,"has_3d_model":false,"image_url":null,"decayed_at":null,"tle_current":{"epoch":"2026-09-20T22:49:39.277920Z","epoch_age_seconds":54365,"freshness":"FRESH","line1":"1 54838U 22177U   26263.95114905 -.00000102  00000+0  58059-5 0  9995","line2":"2 54838  43.0021 110.1262 0001010 248.3330 111.7415 15.27576647206826","mean_motion":15.27576647,"eccentricity":0.000101,"inclination_deg":43.0021,"raan_deg":110.1262,"arg_perigee_deg":248.333,"mean_anomaly_deg":111.7415,"bstar":5.8059e-6,"rev_number":20682,"period_min":94.266955627268,"perigee_km":482.3661553365,"apogee_km":483.752116956,"semimajor_km":6861.1961361463,"source":"CELESTRAK","updated_at":"2026-09-21T09:00:33.135159Z"}}}